Total_Precipitation_Accumulation
10.57 7.26 6.42 5.67 6.33 4.11 1.79 1.64 1.82 2.19 2.31 2.33 2.63 2.99 2.05 1.53 0.97 0.74 0.73 0.72 0.38 0.34 0.29 0.40 0.58 0.54 0.23 0.26 0.29 0.32 0.39 1.05
6.96 5.70 4.95 4.65 4.82 5.35 3.72 2.50 2.16 1.89 1.86 1.82 1.74 2.23 2.13 1.50 1.02 0.76 0.83 0.72 0.50 0.40 0.50 0.63 0.58 0.54 0.55 0.47 0.36 0.28 0.15 0.28
3.69 2.64 1.87 2.18 2.32 2.73 3.35 3.29 2.69 2.72 2.92 2.12 1.68 1.56 2.09 1.75 1.28 0.98 1.02 0.86 0.69 0.56 0.65 0.66 0.53 0.45 0.32 0.29 0.24 0.24 0.17 0.24
1.37 0.91 0.54 0.58 0.72 0.85 1.40 2.16 2.53 2.24 3.57 2.48 2.13 1.26 1.41 1.36 1.55 1.25 1.09 1.14 0.76 0.81 0.65 0.49 0.37 0.25 0.17 0.13 0.10 0.22 0.21 0.28
0.79 0.59 0.40 0.47 0.34 0.41 0.60 1.22 2.02 2.29 2.49 2.34 2.36 1.45 1.58 1.38 1.60 1.25 1.09 1.53 0.97 0.93 0.68 0.47 0.31 0.30 0.29 0.16 0.22 0.20 0.22 0.19
0.35 0.41 0.50 0.85 0.66 0.41 0.45 0.88 1.67 1.83 1.47 1.33 1.76 1.33 1.41 1.48 1.25 1.19 0.92 1.39 1.03 0.84 0.62 0.52 0.53 0.52 0.41 0.29 0.31 0.24 0.24 0.22
0.40 0.21 0.33 0.41 0.50 0.64 0.61 0.74 1.05 1.33 1.16 0.54 1.19 1.16 1.09 1.49 1.31 1.35 0.97 1.43 0.89 0.57 0.57 0.53 0.61 0.68 0.60 0.51 0.28 0.37 0.22 0.27
0.48 0.44 0.39 0.39 0.45 0.43 0.59 0.81 1.14 1.08 1.17 0.58 0.51 0.83 1.14 1.59 1.52 1.45 1.11 1.20 0.98 0.78 0.49 0.53 0.50 0.70 0.56 0.49 0.36 0.37 0.18 0.18
0.62 1.03 0.52 0.38 0.40 0.51 0.51 0.62 0.97 1.10 1.20 0.98 0.61 0.56 0.80 1.25 1.53 1.34 1.25 1.18 0.95 0.96 0.84 0.62 0.60 0.86 0.60 0.52 0.42 0.45 0.25 0.12
0.67 1.29 0.95 0.59 0.48 0.72 0.70 0.90 1.11 1.31 1.56 1.40 0.95 0.92 1.09 1.33 1.47 1.82 1.94 1.93 1.21 0.86 0.92 0.66 0.59 0.79 0.79 0.56 0.53 0.45 0.42 0.13
0.50 0.84 1.09 1.04 1.01 1.11 1.05 1.05 1.29 1.42 1.50 1.72 1.66 1.86 2.10 1.97 1.94 2.20 2.43 2.04 1.47 1.29 1.12 1.00 0.72 0.81 0.92 0.71 0.60 0.47 0.54 0.46
0.59 0.75 1.24 1.72 1.15 0.80 1.01 1.33 1.25 1.24 1.20 1.46 1.64 1.52 1.82 2.08 2.22 1.78 1.98 2.16 2.07 1.98 1.95 1.79 1.40 1.02 1.10 1.05 0.63 0.66 0.59 0.63
0.65 1.02 1.03 0.76 0.65 0.65 0.87 1.01 1.17 1.27 1.10 1.28 1.68 1.72 1.79 2.27 2.45 2.64 2.36 1.86 2.05 2.08 2.13 2.01 1.89 1.58 1.82 1.80 1.24 0.72 0.67 0.60
0.34 0.23 0.33 0.41 0.51 0.63 0.79 0.89 1.11 1.19 1.29 1.13 1.40 1.55 1.84 1.84 2.02 2.31 2.47 2.00 1.46 1.27 1.65 2.19 2.40 2.24 2.21 2.04 1.68 1.25 0.81 0.71
0.14 0.25 0.45 0.42 0.44 0.61 0.82 1.18 1.42 1.31 1.27 0.99 0.94 1.25 1.61 1.87 2.04 2.05 1.99 1.77 1.55 1.54 1.79 2.21 2.10 2.14 2.07 2.25 2.03 1.54 1.03 0.81
0.22 0.27 0.32 0.27 0.40 0.63 0.65 0.71 0.78 0.64 0.60 0.67 0.68 1.04 1.57 2.11 2.37 2.20 2.45 2.73 2.07 1.65 1.33 1.70 2.18 2.37 2.68 2.17 1.41 1.14 0.99 0.96
0.15 0.27 0.33 0.26 0.39 0.75 0.85 0.84 0.63 0.54 0.54 0.68 0.78 0.98 1.36 1.76 2.13 2.23 2.32 2.35 2.27 2.17 1.75 1.60 1.76 1.90 1.89 1.95 2.09 1.74 1.37 1.00
0.16 0.18 0.32 0.34 0.35 0.60 1.04 1.46 1.72 1.79 1.47 1.06 0.83 1.01 1.26 1.63 1.87 2.05 2.55 2.71 2.56 2.21 2.23 1.95 1.63 1.73 1.87 1.83 1.48 1.32 1.33 1.36
0.27 0.19 0.20 0.24 0.28 0.29 0.45 0.76 1.11 1.60 2.26 3.04 2.91 2.37 2.08 2.24 2.43 2.32 2.45 2.71 3.32 2.86 2.81 2.66 2.56 2.08 1.95 1.79 1.65 1.43 1.15 1.22
0.39 0.37 0.36 0.23 0.24 0.34 0.49 0.59 0.75 1.09 1.24 1.58 2.41 3.18 2.85 3.15 3.59 3.83 3.24 2.95 3.42 3.62 3.14 2.96 3.39 3.24 2.67 2.18 1.85 1.84 1.92 1.78